Regional Weather Roundup
Issued by NWS

Home | Current Version | Previous Version | Text Only | Print | Product List | Glossary On
Versions: 1 2 3 4 5 6 7 8 9 10 11 12 13 14 15 16 17 18 19 20 21 22 23 24 25 26 27 28 29 30 31 32 33 34 35 36 37 38 39 40 41 42 43 44 45 46 47 48 49 50
000
ASUS43 KDTX 270310
RWRMI
MICHIGAN HOURLY REGIONAL WEATHER ROUNDUP
NATIONAL WEATHER SERVICE DETROIT/PONTIAC MI
1100 PM EDT SUN APR 26 2015

NOTE: "FAIR" INDICATES FEW OR NO CLOUDS BELOW 12,000 FEET WITH NO
SIGNIFICANT WEATHER AND/OR OBSTRUCTION TO VISIBILITY.

MIZ047>049-052>055-059>063-066>070-074>076-081>083-270400-
SOUTHEAST LOWER MICHIGAN

CITY           SKY/WX    TMP DP  RH WIND       PRES   REMARKS
ADRIAN         CLOUDY    48  34  58 CALM      29.92R
ALMA           CLEAR     42  32  69 CALM      29.97R
ANN ARBOR      PTCLDY    46  31  55 E8        29.93R
BAD AXE        CLOUDY    44  33  64 N9        29.93S
CARO           PTCLDY    36  32  84 CALM      29.93S
DETROIT CITY   CLEAR     42  30  62 N5        29.94R
DETROIT        CLEAR     46  30  53 NE6       29.94R
FLINT          CLEAR     44  31  60 NE7       29.95R
GROSSE ILE     CLEAR     43  32  65 NE7       29.92R
HILLSDALE      CLOUDY    47  33  59 CALM      29.91S
HOWELL         CLEAR     45  30  55 NE7       29.93R

CITY           SKY/WX    TMP DP  RH WIND       PRES   REMARKS
JACKSON        PTCLDY    48  30  49 NE8       29.92R
LAMBERTVILLE   CLOUDY    46  36  66 CALM      29.93R
LANSING        CLEAR     45  31  58 NE10      29.96R
LAPEER         FAIR      37  31  78 CALM      29.94S
MASON          CLEAR     46  30  54 NE5       29.94R
MONROE         PTCLDY    45  32  61 CALM      29.92R
PONTIAC        PTCLDY    43  31  62 N8        29.93R
PORT HOPE        N/A     44  35  70 N12       29.91F
PORT HURON     PTCLDY    39  32  75 NW3       29.92F
TRI CITIES     MOCLDY    42  35  76 N6        29.96R
MIDLAND        CLOUDY    41  35  78 CALM      29.96R
TROY           CLEAR     44  31  59 N3        29.95S
SAGINAW HB     CLEAR     37  30  75 NW3       29.95S
$$
MIZ043>046-050>051-056>058-064>065-071>073-077>080-270400-
SOUTHWEST LOWER MICHIGAN

CITY           SKY/WX    TMP DP  RH WIND       PRES   REMARKS
BATTLE CREEK   CLEAR     50  27  40 N12       29.94R
BENTON HARBOR  PTCLDY    40  32  73 VRB5      29.98R
BIG RAPIDS     CLEAR     42  31  64 N13       29.99R
COLDWATER      CLOUDY    49  29  46 NW7       29.92S
FREMONT        FAIR      45  28  50 N8        30.00R
HOLLAND        CLEAR     47  27  45 NW5       29.98R
GRAND RAPIDS   CLEAR     46  29  51 N10       29.97R
IONIA          FAIR      47  30  52 N9        29.95R
KALAMAZOO      CLEAR     45  29  53 N9        29.95R
LUDINGTON      CLEAR     43  32  65 N6        30.04S
MARSHALL       CLOUDY    50  29  44 NW6       29.93R
MOUNT PLEASANT CLEAR     45  31  58 NW9       29.97R
MUSKEGON       PTCLDY    46  29  51 N9        30.00R
SOUTH HAVEN    CLEAR     43  32  66 N3        29.97S
$$
MIZ016>042-270400-
NORTHERN LOWER MICHIGAN

CITY           SKY/WX    TMP DP  RH WIND       PRES   REMARKS
BEAVER ISLAND  CLOUDY    40  32  73 NW6       30.04S
BELLAIRE       CLOUDY    44  30  59 N6        30.02S
CADILLAC       CLEAR     39  30  71 N7        30.00R WCI  34
CHARLEVOIX     CLOUDY    40  33  75 N7        30.05F WCI  35
FRANKFORT      CLOUDY    45  28  53 N7        30.05S
GAYLORD        CLOUDY    41  30  65 N6        29.98S
GRAYLING       CLOUDY    42  30  63 CALM      29.99S
HARBOR SPRINGS CLOUDY    43  31  62 NW3       30.01S
HOUGHTON LAKE  MOCLDY    42  30  62 N9        29.98S
MANISTEE       CLEAR     43  28  56 N3        30.05S
OSCODA         CLOUDY    46  32  57 NW10      29.93S
PELLSTON       CLOUDY    43  31  62 NW13      30.02R
ROGERS CITY    CLOUDY    41  34  75 NW13G22   29.99S
TRAVERSE CITY  CLOUDY    44  31  60 NW8       30.02F
$$
MIZ007>008-015-270400-
EASTERN UPPER MICHIGAN

CITY           SKY/WX    TMP DP  RH WIND       PRES   REMARKS
KINROSS        CLOUDY    37  36  93 NW14      30.01S WCI  29
MACKINAC ISLAN CLOUDY    42  33  72 N10G17    30.01R
NEWBERRY       CLOUDY    38  32  81 N8        30.05S WCI  32
S. S. MARIE    CLOUDY    39  32  76 NW6       30.02R WCI  35
MUNISING         N/A     40  30  67 N12       30.09F WCI  33
$$
MIZ004>006-011>014-085-270400-
CENTRAL UPPER MICHIGAN

CITY           SKY/WX    TMP DP  RH WIND       PRES   REMARKS
MANISTIQUE     MOCLDY    40  32  73 N12       30.05S WCI  32
ESCANABA       CLOUDY    43  28  56 NW3       30.08S
MENOMINEE      PTCLDY    45  27  49 N8        30.08S
SAWYER-GWINN   CLOUDY    44  29  55 N13       30.08F
$$
MIZ001>003-009>011-084-270400-
WESTERN UPPER MICHIGAN

CITY           SKY/WX    TMP DP  RH WIND       PRES   REMARKS
IRON MOUNTAIN  CLEAR     42  26  53 NW7       30.08S
HOUGHTON       PTCLDY    36  28  73 NW13      30.13S WCI  27
COPPER HARBOR    N/A     41  28  60 N15       30.12F
IRONWOOD       CLEAR     34  28  80 CALM      30.14R
$$

ABBREVIATIONS USED IN REMARKS
   TC - TEMPERATURE IN CELSIUS
  WCI - WIND CHILL INDEX
   HX - HEAT INDEX
  VSB - VISIBILITY




USA.gov is the U.S. government's official web portal to all federal, state and local government web resources and services.